This demonstration page uses our WeatherBlox Daily Observations layout. Learn more.

Left ArrowRight Arrow

39.08367, -84.50855

Hourly Observations for April 19, 2015

Temp ( °F °C ) Dew Point ( °F °C ) Humidity (%) Winds ( mph kmh ) Pressure ( in mb ) Visibility ( mi km ) Precip ( " mm )
12:53 am 00:53 Clear 61 16.1 49 9.4 65 65 NE 6 9 29.94 1014 10 16 N/A
1:53 am 01:53 Clear 63 17.2 47 8.3 56 56 NE 7 11 29.93 1014 10 16 N/A
2:53 am 02:53 Clear 63 17.2 47 8.3 56 56 NE 6 9 29.91 1013 10 16 N/A
3:53 am 03:53 Clear 62 16.7 47 8.3 58 58 NNE 7 11 29.89 1012 10 16 N/A
4:53 am 04:53 Clear 61 16.1 48 8.9 63 63 NE 9 15 29.86 1011 10 16 N/A
5:53 am 05:53 Mostly Clear 59 15 49 9.4 69 69 NE 7 11 29.85 1011 10 16 N/A
6:53 am 06:53 Mostly Cloudy 60 15.6 48 8.9 65 65 NE 7 11 29.83 1010 10 16 N/A
7:53 am 07:53 Mostly Cloudy 60 15.6 48 8.9 65 65 NNE 5 7 29.83 1010 10 16 N/A
8:53 am 08:53 Cloudy 61 16.1 50 10 67 67 NNE 6 9 29.82 1010 10 16 N/A
9:53 am 09:53 Cloudy with Light Rain 62 16.7 51 10.6 67 67 NNE 5 7 29.80 1009 10 16 N/A
10:53 am 10:53 Cloudy with Light Rain 62 16.7 55 12.8 78 78 VRB 6 9 29.78 1009 5 8 0.01 0.25
11:53 am 11:53 Cloudy with Light Rain 61 16.1 58 14.4 90 90 E 5 7 29.76 1008 4 6 0.06 1.52
12:53 pm 12:53 Cloudy with Light Rain 64 17.8 61 16.1 90 90 ESE 9 15 29.71 1006 10 16 0.04 1.02
1:53 pm 13:53 Cloudy with Light Rain 65 18.3 62 16.7 90 90 E 7 11 29.67 1005 7 11 0.04 1.02
2:22 pm 14:22 Cloudy with Light Rain 64 18 63 17 94 94 ESE 14 22 29.65 1004 6 10 N/A
2:53 pm 14:53 Cloudy with Light Rain 64 17.8 62 16.7 93 93 ESE 10 17 29.61 1003 4 6 0.04 1.02
3:53 pm 15:53 Cloudy with Light Rain 65 18.3 62 16.7 90 90 SSE 10 17 29.57 1001 5 8 0.02 0.51
4:53 pm 16:53 Cloudy 65 18.3 62 16.7 90 90 SE 15 24 29.51 999 10 16 0.07 1.78
5:21 pm 17:21 Cloudy with Light Rain 65 18.3 62 16.7 90 90 SE 13 20 29.50 999 10 16 N/A
5:53 pm 17:53 Cloudy 66 18.9 63 17.2 90 90 S 17 28 29.49 999 10 16 N/A
6:53 pm 18:53 Cloudy with Light Rain 66 18.9 63 17.2 90 90 S 10 17 29.48 998 7 11 0.01 0.25
7:00 pm 19:00 Cloudy with Light Rain 66 19 63 17 88 88 SSE 13 20 29.47 998 4 6 N/A
7:07 pm 19:07 Cloudy with Rain 65 18.3 63 17.2 93 93 SE 8 13 29.47 998 3 4 0.02 0.51
7:15 pm 19:15 Cloudy with Light Rain 65 18.3 63 17.2 93 93 VRB 5 7 29.47 998 5 8 0.03 0.76
7:35 pm 19:35 Cloudy with Rain 65 18.3 64 17.8 97 97 S 8 13 29.47 998 3 4 0.08 2.03
7:45 pm 19:45 Cloudy with Heavy Rain 64 17.8 63 17.2 96 96 S 10 17 29.47 998 2 3 0.14 3.56
7:53 pm 19:53 Cloudy with Rain 64 17.8 63 17.2 96 96 S 9 15 29.46 998 3 5 0.16 4.06
8:03 pm 20:03 Cloudy with Thunderstorms 64 18 63 17 94 94 S 9 15 29.47 998 4 6 N/A
8:18 pm 20:18 Cloudy with Rain 63 17.2 63 17.2 100 100 S 7 11 29.47 998 6 10 0.05 1.27
8:53 pm 20:53 Cloudy 63 17.2 62 16.7 97 97 N N/A 29.44 997 10 16 0.05 1.27
9:06 pm 21:06 Cloudy with Light Rain 63 17 63 17 100 100 N N/A 29.44 997 3 5 N/A
9:41 pm 21:41 Cloudy with Light Rain 65 18.3 64 17.8 97 97 SSE 12 19 29.44 997 3 5 0.14 3.56
9:53 pm 21:53 Cloudy with Light Rain 66 18.9 63 17.2 90 90 S 18 30 29.43 997 3 5 0.16 4.06
10:07 pm 22:07 Mostly Cloudy 65 18.3 64 17.8 97 97 SSW 15 24 29.44 997 10 16 N/A
10:41 pm 22:41 Mostly Cloudy 64 17.8 64 17.8 100 100 SSW 17 28 29.44 997 10 16 N/A
10:53 pm 22:53 Cloudy 64 17.8 64 17.8 100 100 S 13 20 29.44 997 10 16 N/A
11:53 pm 23:53 Cloudy 64 17.8 61 16.1 90 90 SSW 17 28 29.44 997 10 16 N/A

Powered by AerisWeather